This demonstration page uses our WeatherBlox Daily Observations layout. Learn more.

Left ArrowRight Arrow

Hourly Observations for November 13, 2016

Temp ( °F °C ) Dew Point ( °F °C ) Humidity (%) Winds ( mph kmh ) Pressure ( in mb ) Visibility ( mi km ) Precip ( " mm )
12:53 am 00:53 Cloudy 56 13.3 31 -0.6 39 39 ENE 8 13 30.25 1025 10 16 0.00 0.00
1:53 am 01:53 Cloudy 55 12.8 31 -0.6 40 40 E 7 11 30.23 1024 10 16 0.00 0.00
2:53 am 02:53 Cloudy 54 12.2 31 -0.6 42 42 ENE 5 7 30.24 1024 10 16 0.00 0.00
3:53 am 03:53 Cloudy 53 11.7 31 -0.6 43 43 ENE 10 17 30.23 1024 10 16 0.00 0.00
4:53 am 04:53 Cloudy 53 11.7 29 -1.7 40 40 E 9 15 30.23 1024 10 16 0.00 0.00
5:53 am 05:53 Mostly Cloudy 51 10.6 29 -1.7 43 43 NNE 6 9 30.24 1024 10 16 0.00 0.00
6:53 am 06:53 Cloudy 50 10 31 -0.6 48 48 NE 8 13 30.25 1024 10 16 0.00 0.00
7:53 am 07:53 Cloudy 51 10.6 30 -1.1 44 44 E 5 7 30.27 1025 10 16 0.00 0.00
8:53 am 08:53 Mostly Cloudy 51 10.6 31 -0.6 46 46 E 8 13 30.28 1025 10 16 0.00 0.00
9:53 am 09:53 Cloudy 50 10 31 -0.6 48 48 NE 12 19 30.29 1026 7 11 0.00 0.00
10:53 am 10:53 Mostly Cloudy 50 10 32 0 50 50 E 10 17 30.29 1026 7 11 0.00 0.00
11:53 am 11:53 Cloudy 50 10 36 2.2 59 59 VRB 5 7 30.28 1025 10 16 0.00 0.00
12:53 pm 12:53 Mostly Cloudy 53 11.7 36 2.2 52 52 E 7 11 30.24 1024 10 16 0.00 0.00
1:53 pm 13:53 Cloudy 54 12.2 36 2.2 51 51 ENE 5 7 30.19 1023 10 16 0.00 0.00
2:53 pm 14:53 Mostly Cloudy 56 13.3 38 3.3 51 51 NNE 5 7 30.18 1022 10 16 0.00 0.00
3:53 pm 15:53 Cloudy 55 12.8 40 4.4 57 57 ENE 5 7 30.17 1022 10 16 0.00 0.00
4:53 pm 16:53 Sunny 55 12.8 40 4.4 57 57 NE 3 6 30.17 1022 10 16 0.00 0.00
5:53 pm 17:53 Clear 53 11.7 40 4.4 61 61 Calm 30.17 1022 10 16 0.00 0.00
6:53 pm 18:53 Clear 48 8.9 41 5 77 77 Calm 30.18 1022 10 16 0.00 0.00
7:53 pm 19:53 Cloudy 45 7.2 40 4.4 83 83 Calm 30.19 1022 10 16 0.00 0.00
8:53 pm 20:53 Clear 43 6.1 40 4.4 89 89 Calm 30.18 1022 10 16 0.00 0.00
9:53 pm 21:53 Clear 44 6.7 40 4.4 85 85 Calm 30.17 1022 10 16 0.00 0.00
10:53 pm 22:53 Clear 41 5 38 3.3 89 89 Calm 30.16 1021 10 16 0.00 0.00
11:53 pm 23:53 Clear 43 6.1 39 3.9 86 86 Calm 30.17 1022 10 16 0.00 0.00

Powered by AerisWeather